Location: *
(45.9500°N, 9.0833°E)
Time: 18:24:35
(UTC+00:00)

SL-08 RB Rocket - Pass Details

Date: 03 March 2021
Orbit: 647 x 683 km, 97.8° (Epoch: 15 April)

Event Time Altitude Azimuth Distance (km) Brightness Sun altitude
Rises 18:49:49 0° 175° (S) 2,962 6.9 -17.6°
Reaches altitude 10° 18:52:02 10° 179° (S) 2,060 6.1 -17.9°
Maximum altitude 18:56:29 59° 259° (W) 762 4.2 -18.7°
Drops below altitude 10° 19:01:01 10° 340° (NNW) 2,098 6.7 -19.5°
Sets 19:03:18 0° 344° (NNW) 3,022 7.5 -19.9°
